loading
|

OBJECT A, 61227

Orbit data source: Space-Track

OBJECT A, 61227 is a Chinese satellite in SSO that was launched on Tue, 24 Sep 2024 UTC via a JIELONG-3 launch vehicle from the Yellow Sea Launch Area, China (YSLA). Unknown objects in Earth's orbit typically refer to objects detected orbiting the Earth but have not yet been identified or cataloged. These objects could be anything from previously untracked satellites, spent rocket stages, debris from satellite collisions, or even natural meteoroids temporarily captured by Earth's gravity.

Loading next visibility...
Next conjunction unknown
Loading greatness...
OBJECT A details
Identifier
61227, 2024-173A
Orbit
SSO
Last TLE update4 hours ago
Origin
Flag of CNJTXZ (CN / PRC)
ManufacturerTaizhou Xingkong
MissionOperational spacecraft
Bus & MotorJTX, Unknown motor
Mass~50 kg wet, ~50 kg dry
Launch date (UTC)
2024-09-24 (3 weeks ago)
Launch vehicle
JIELONG-3
Launch site
Yellow Sea Launch Area, China (YSLA)
Object typeUnknown
Shape & HBRUnknown
Radar Cross SectionMedium (>0.1 m² and <1 m²)

Expand to show TLE details & history

TLE from 4 hours ago
0 OBJECT A
1 61227U 24173A   24288.49264587  .00032806  00000-0  12828-2 0  9996
2 61227  97.4066   1.0854 0011498 197.7394 162.3444 15.25719614  3090
Epoch: 2024-10-14T11:49Z
Definitive object data (Epoch: 2024-10-14T11:49:24.603Z)
Latitude-0.00004°
Longitude160.21389°
Altitude499.25 km
Speed7.611 km/s
True Right ascension00h 04m 20s
True Declination0° 00' 00"
Sunlit
Object was in full shadow at TLE epoch
Predictive object data (real-time)
Latitude-1.62831°
Longitude-19.83403°
Altitude484.312 km
Speed7.627 km/s
Apparent Right ascension14h 48m 46s
Apparent Declination-52° 34' 44"
Sunlit
Object is in daylight
Predictive observer data (real-time)
Local Sidereal Time10:20:08
Azimuth143.633° SSE
Elevation-19.188°
Doppler factor1
Orbital elements
Apogee493.476 km
Perigee477.692 km
Semi-major axis6,863.721 km
Eccentricity0.0011498
Inclination97.4066°
RAAN1.0854°
Arg. of periapsis197.7394°
True anomaly162.38431°
Mean anomaly162.3444°
Eccentric anomaly162.36436°
Mean motion3.81684 °/min
BSTAR0.0012828
Period94.32 mins
No data available

OBJECT A Visibility forecast

Observer location: 39.9160978°, -105.1181434

Span
Click to sort rows by Start time (UTC) header in descending order
Start Az.
Max El. time (UTC)
Max El. Az.
Max El.
End time (UTC)
End Az.
4 mins2024-10-14 17:07:53.875Z55.811° ENE2024-10-14 17:09:53.875Z99.153° ESE19.816°2024-10-14 17:11:53.875Z139.196° SSE
5 mins2024-10-15 05:16:53.875Z188.626° SSW2024-10-15 05:18:53.875Z276.823° WNW40.287°2024-10-15 05:21:53.875Z339.002° N